Location: Briis
(48.6240°N, 2.1211°E)
Time: 18:27:40
(UTC+00:00)

Lacrosse 5 - Pass Details

Date: 25 September 2020
Orbit: 716 x 723 km, 57.0° (Epoch: 20 October)

Event Time Altitude Azimuth Distance (km) Brightness Sun altitude
Exits shadow 01:19:16 17° 60° (ENE) 1,765 4.3 -38.1°
Drops below altitude 10° 01:20:27 10° 57° (ENE) 2,206 5.0 -38.0°
Sets 01:22:51 0° 55° (NE) 3,131 6.0 -37.7°
